Regional Weather Roundup
Issued by NWS

Home | Current Version | Previous Version | Graphics & Text | Print | Product List | Glossary On
Versions: 1 2 3 4 5 6 7 8 9 10 11 12 13 14 15 16 17 18 19 20 21 22 23 24 25 26 27 28 29 30 31 32 33 34 35 36 37 38 39 40 41 42 43 44 45 46 47 48 49 50
000
ASUS43 KBIS 281410
RWRND

NORTH DAKOTA REGIONAL WEATHER ROUNDUP
NATIONAL WEATHER SERVICE BISMARCK ND
800 AM CST SUN DEC 28 2014

NOTE: "FAIR" INDICATES FEW OR NO CLOUDS BELOW 12,000 FEET WITH NO
SIGNIFICANT WEATHER AND/OR OBSTRUCTIONS TO VISIBILITY.


NDZ001>003-009>011-017-281500-
NORTHWEST NORTH DAKOTA

CITY           SKY/WX    TMP DP  RH WIND       PRES   REMARKS
WILLISTON      CLOUDY    12   7  80 E9        30.07R WCI   0
MINOT          CLOUDY    -6 -11  79 N7        30.16R WCI -20
MINOT AFB      CLOUDY    -8 -11  85 N8        30.18R WCI -24
$$

NDZ018>021-031>035-040>046-281500-
SOUTHWEST NORTH DAKOTA

CITY           SKY/WX    TMP DP  RH WIND       PRES   REMARKS
BISMARCK       LGT SNOW  12   9  87 E8        30.12R FOG     WCI   0
DICKINSON      CLOUDY    18  14  84 E13       29.97R WCI   5
GARRISON         N/A      5   1  83 NE9       30.10R WCI  -9
HETTINGER ARPT CLOUDY     4   0  83 CALM      29.97R
$$

NDZ004>008-012>016-024-026-027-054-281500-
NORTHEAST NORTH DAKOTA

CITY           SKY/WX    TMP DP  RH WIND       PRES   REMARKS
GRAND FORKS    CLEAR    -10 -14  82 NW7       30.29R WCI -25
GRND FRKS AFB  PTCLDY   -10 -13  83 N8        30.29R WCI -26
DEVILS LAKE    CLOUDY    -4 -11  71 NE6       30.19R WCI -16
$$

NDZ022-023-025-028>030-036>039-047>053-281500-
SOUTHEAST NORTH DAKOTA

CITY           SKY/WX    TMP DP  RH WIND       PRES   REMARKS
FARGO          PTCLDY     0  -9  65 N13       30.24R WCI -18
JAMESTOWN      CLOUDY     5   1  83 NE8       30.17R WCI  -8
$$



USA.gov is the U.S. government's official web portal to all federal, state and local government web resources and services.